GEFSSE_500_meanwind_336.txt.gz
Wind_Speed
6 6 6 5 4 3 3 4 3 3 3 3 3 3 3 3 3 2 3 3 4 4 4 4 4 4 4 4 4 3 2 3 3 2 2 2 2 1 1 1 2 2 3
7 7 6 5 4 3 4 3 3 3 3 3 3 3 3 2 2 3 3 3 4 4 4 4 4 4 4 4 4 4 3 3 3 2 2 2 2 2 2 2 2 3 3
7 7 6 5 4 4 4 4 3 3 3 2 2 2 3 2 2 2 3 3 3 4 4 4 3 3 3 3 3 3 4 3 2 2 2 3 3 2 2 2 2 3 3
7 7 6 6 4 4 3 3 3 3 2 2 2 2 2 2 2 3 3 3 3 3 3 3 3 2 2 2 2 3 4 3 2 2 2 3 3 2 3 3 3 3 4
6 6 6 6 5 4 3 3 4 3 2 2 2 2 2 2 2 3 3 3 3 3 3 4 4 3 2 2 2 3 3 3 3 3 3 3 4 4 4 4 4 4 4
7 7 6 6 5 5 4 3 3 3 3 2 3 3 2 2 2 3 3 3 3 3 3 3 3 2 2 2 2 2 3 4 4 4 3 4 5 5 5 5 5 5 5
7 7 6 5 5 5 5 4 4 4 3 3 3 3 3 3 3 3 3 3 3 2 2 2 2 2 2 1 1 2 3 4 5 4 4 4 4 4 5 5 5 5 5
8 7 6 5 5 5 4 5 4 4 3 4 4 3 3 3 3 3 3 2 2 1 1 1 2 2 2 2 3 3 4 5 6 4 4 5 5 5 5 5 5 5 6
8 7 7 6 6 5 5 5 5 4 4 5 5 4 3 3 3 3 3 2 1 1 0 1 1 2 2 2 3 3 4 5 5 5 5 6 5 5 5 5 6 6 6
9 8 7 6 6 6 5 5 5 4 4 4 4 4 4 4 3 3 3 3 2 1 1 0 2 2 3 3 3 4 4 4 5 5 5 6 6 5 5 5 6 6 6
9 9 8 7 7 6 6 5 5 5 4 4 3 3 3 4 4 4 4 3 2 2 2 1 1 2 2 2 3 4 4 5 5 4 5 5 5 5 5 6 7 7 7
10 9 9 9 8 7 6 5 5 5 5 4 4 5 5 4 4 4 4 3 2 2 2 2 2 2 2 2 3 3 4 4 4 4 5 5 5 5 5 6 7 8 8
10 9 9 10 9 8 8 7 6 5 5 4 4 5 6 5 5 4 4 3 2 2 2 2 3 3 3 3 2 3 3 3 4 3 3 4 5 5 5 6 7 7 7
10 10 10 10 10 9 8 7 7 6 6 5 6 6 6 6 5 4 4 3 3 3 3 2 3 3 3 3 3 3 4 4 4 4 5 5 5 5 6 6 6 6 6
10 11 11 10 9 9 8 7 7 7 7 6 6 6 6 6 5 4 4 3 3 3 3 3 3 3 3 3 3 4 3 3 3 4 4 4 4 4 5 5 5 5 6
10 10 10 9 9 8 8 7 7 7 7 7 7 6 6 6 5 5 4 4 4 4 3 3 4 3 3 3 4 4 3 3 3 3 3 3 4 4 4 4 4 5 6
10 10 9 9 8 8 8 8 6 6 7 6 6 6 6 5 5 5 5 5 5 5 4 4 3 3 3 3 3 3 4 4 4 4 4 4 4 4 4 4 4 5 6
8 8 9 9 8 8 8 8 7 5 6 6 6 6 6 5 5 5 5 5 5 5 5 4 4 4 3 3 3 4 4 4 5 5 5 5 5 4 4 4 5 5 6
7 7 8 8 8 8 8 8 7 6 6 5 6 6 6 5 5 5 5 6 5 5 5 5 5 4 4 4 3 3 3 4 5 5 4 5 5 5 6 6 6 5 6
7 6 6 7 7 8 8 7 7 6 6 5 5 6 6 6 6 5 6 6 6 5 4 5 4 4 4 4 4 4 4 4 5 5 5 5 5 6 6 6 7 7 7
7 6 6 6 7 7 7 7 6 6 6 6 5 5 4 4 5 5 5 5 5 5 4 5 5 5 5 5 5 5 5 5 5 6 6 6 7 7 7 7 7 7 8
6 5 5 5 6 6 7 6 6 5 5 5 5 4 4 4 4 5 5 5 5 4 4 4 4 5 5 5 5 6 5 5 6 6 6 7 7 8 7 7 7 7 8
5 5 5 5 5 5 6 6 6 6 5 6 6 5 5 5 5 5 5 5 5 5 4 4 4 4 5 5 6 6 6 6 7 7 8 7 8 9 8 9 8 8 9
5 5 4 4 5 5 5 6 5 5 5 6 6 6 5 5 5 5 5 5 4 4 4 5 5 5 5 5 6 6 6 7 7 8 8 8 8 9 9 10 10 10 10
4 4 4 4 4 4 4 5 5 5 5 5 5 5 5 5 5 6 6 5 5 5 5 5 6 6 6 6 6 6 6 7 7 8 8 9 10 10 10 11 12 12 11
3 4 4 3 3 4 4 4 4 4 5 4 4 4 4 4 5 5 6 6 5 6 6 7 6 6 7 7 7 7 7 8 9 8 8 9 11 11 12 12 13 12 12

GEFSSE_500_meanwind_342.txt.gz
Wind_Speed
7 6 5 4 5 5 5 5 4 4 4 4 3 3 3 3 3 2 2 3 3 4 4 4 3 3 3 2 2 2 2 2 4 4 3 3 3 2 2 3 3 4 5
7 7 6 5 5 5 5 6 5 4 4 4 3 3 3 3 3 3 3 3 3 4 4 4 3 2 2 2 1 1 2 2 3 2 2 3 3 3 3 4 4 5 4
7 7 6 6 6 5 5 6 5 5 4 3 3 2 3 3 4 3 3 3 3 4 4 4 3 3 2 2 1 2 2 3 3 2 2 3 3 4 4 4 5 5 5
6 6 6 6 6 6 5 6 5 4 4 4 3 3 3 4 4 3 3 3 3 4 4 4 4 3 3 2 2 2 2 2 3 3 3 4 4 4 4 4 4 5 5
6 6 6 6 6 6 6 6 5 5 4 4 4 4 4 4 4 3 3 3 3 3 3 3 2 2 3 3 3 3 2 2 4 5 5 4 5 5 5 5 4 4 4
6 6 6 6 6 6 6 6 6 5 5 5 5 5 4 3 4 3 3 3 3 3 3 2 2 2 2 3 3 3 2 2 4 5 5 5 5 5 5 5 5 5 5
6 6 6 6 6 6 6 6 5 5 5 5 5 5 4 4 3 3 3 4 3 3 3 2 1 1 2 2 3 3 3 4 4 5 6 6 5 6 6 6 6 6 6
7 7 7 6 6 6 6 6 5 4 5 5 5 4 5 5 4 4 4 4 4 3 2 1 1 1 1 2 3 3 3 4 4 4 5 6 6 6 6 6 6 6 6
9 8 8 7 7 6 6 6 6 5 4 4 5 5 5 5 5 4 4 4 3 2 1 1 1 1 1 2 2 2 3 4 4 4 5 6 6 7 7 7 6 7 7
10 9 8 8 7 7 6 6 6 6 5 5 5 5 5 5 5 4 4 3 2 2 1 1 0 0 2 2 1 2 3 4 5 5 5 5 6 7 7 7 7 7 7
10 9 8 7 7 7 7 6 5 6 5 5 5 5 5 5 5 4 3 3 2 2 1 1 0 1 2 2 2 2 3 4 5 5 5 6 6 6 7 8 7 7 8
9 9 9 8 7 7 7 6 5 5 5 5 5 4 5 5 5 4 3 3 2 2 1 1 1 2 3 3 3 3 3 4 5 5 5 6 6 6 7 8 8 8 8
9 9 9 8 8 8 7 7 7 6 6 5 5 5 5 4 4 4 3 3 2 2 1 1 1 2 3 3 3 3 3 3 4 4 6 6 7 6 7 8 8 8 8
9 9 9 9 9 9 8 7 7 6 6 7 6 6 5 5 5 4 3 2 2 1 1 2 2 2 3 3 3 4 4 4 5 5 6 6 6 6 7 7 7 8 8
10 10 10 10 9 9 8 7 7 6 6 7 7 6 6 5 5 4 4 3 2 1 1 2 3 3 3 3 3 3 4 5 5 5 5 6 6 6 6 7 7 8 8
11 10 9 10 9 9 8 7 7 7 7 7 6 6 5 5 4 4 3 3 3 2 2 2 3 3 3 3 3 3 4 4 5 5 6 5 6 6 6 6 6 8 8
9 9 9 9 9 8 8 7 7 6 6 6 6 6 6 5 4 4 4 4 4 4 3 3 4 4 3 3 3 4 4 4 4 5 6 6 6 7 7 7 7 7 8
8 8 8 8 8 8 8 7 6 5 5 5 5 5 5 5 4 4 4 4 4 4 4 4 5 5 4 3 4 4 5 5 4 5 5 6 6 6 7 7 7 7 8
8 7 7 8 8 7 7 7 6 5 5 4 5 4 4 4 4 4 4 4 4 5 5 5 5 5 5 4 5 5 5 5 4 4 5 6 6 7 7 7 7 7 8
7 7 7 7 7 7 6 6 6 5 4 4 4 4 3 3 3 3 3 4 4 4 4 5 5 5 4 5 5 5 5 5 5 5 5 6 6 7 8 8 8 9 9
5 6 6 6 6 6 5 5 5 4 4 4 3 3 3 3 3 3 3 4 4 5 5 5 5 5 5 5 5 5 5 6 5 6 6 6 7 8 8 9 10 10 10
4 4 4 5 5 5 5 5 4 4 3 3 3 3 2 3 3 3 4 4 4 4 4 4 5 5 5 5 5 4 5 5 5 7 7 7 8 9 10 10 11 11 11
3 3 4 4 4 4 4 4 4 4 3 3 3 3 2 3 3 3 3 4 4 4 5 5 5 5 5 5 5 5 5 5 6 7 8 8 8 10 11 11 11 12 12
2 2 2 2 2 2 3 3 3 3 3 2 2 3 3 3 3 4 4 4 5 5 5 5 5 5 6 6 6 6 6 6 6 7 8 9 10 10 12 12 12 12 12
3 3 3 2 2 2 2 3 3 3 2 2 2 3 3 3 4 5 5 5 5 5 5 5 6 6 7 8 7 7 7 7 8 8 9 9 10 11 12 13 13 13 13
4 3 3 3 3 3 3 3 4 4 4 3 3 3 3 4 4 5 5 5 5 5 6 7 8 8 8 9 9 9 9 9 10 10 10 10 11 11 12 13 13 13 13

GEFSSE_500_meanwind_348.txt.gz
Wind_Speed
7 6 5 5 4 3 4 4 4 4 4 5 5 5 4 4 5 6 6 6 6 6 5 5 5 5 5 4 4 4 3 4 4 4 5 5 4 4 4 4 4 5 6
7 6 5 4 4 3 3 4 4 5 4 5 5 5 5 4 4 6 6 6 6 6 6 5 5 5 5 5 5 4 3 3 4 5 5 5 5 5 4 4 5 5 5
6 5 4 3 3 2 2 3 5 5 4 4 4 4 5 5 5 6 7 6 6 6 6 5 5 5 5 5 4 4 4 4 5 5 5 5 5 5 5 5 5 5 5
5 5 4 3 3 3 2 3 4 5 4 5 5 5 6 6 6 6 6 6 6 6 6 5 5 4 5 4 4 4 4 4 4 4 5 5 5 5 5 5 5 5 5
5 5 5 4 4 3 3 3 4 4 4 5 5 6 6 6 6 6 6 6 5 5 5 5 4 4 5 4 4 4 4 4 4 4 4 5 5 5 5 6 5 5 5
5 5 5 5 4 3 3 2 3 3 3 4 5 6 7 7 6 6 6 6 5 5 4 4 4 4 4 4 4 4 4 5 5 4 4 5 5 6 6 6 6 5 6
6 5 5 5 4 4 3 3 3 4 3 4 6 6 7 6 7 6 6 6 5 5 4 4 3 4 4 4 4 4 4 4 5 5 5 5 5 6 6 6 6 6 6
6 6 5 5 3 3 4 3 4 4 4 5 6 7 7 7 6 6 6 6 5 5 4 2 2 4 4 3 3 3 3 3 4 4 5 6 6 6 6 7 7 7 7
6 6 5 5 3 3 3 2 4 5 5 6 6 6 7 7 6 5 5 5 4 4 3 3 3 2 2 2 2 2 2 2 3 4 4 5 6 6 6 6 7 8 8
6 5 5 5 4 4 3 4 4 5 5 6 6 6 7 6 5 5 5 4 3 2 2 2 2 1 2 1 2 3 3 2 3 4 4 5 6 6 7 7 7 9 9
6 5 6 5 4 4 3 4 4 5 5 5 6 6 6 5 5 5 4 4 3 2 2 1 1 1 1 1 2 2 2 2 3 4 4 5 6 6 6 7 8 9 9
6 6 6 6 5 4 4 4 5 5 4 5 5 5 4 4 4 4 4 3 3 2 1 0 1 2 2 2 2 1 2 3 3 4 4 5 6 6 6 6 7 8 9
6 6 6 5 5 5 5 5 4 4 5 5 5 5 5 4 4 4 4 3 2 1 0 1 1 2 2 2 1 1 2 3 3 4 4 4 5 5 6 6 7 8 8
6 7 6 6 6 6 5 5 5 5 5 5 5 5 4 3 3 3 2 2 2 1 1 1 1 2 1 2 2 2 2 3 3 3 4 4 5 6 6 7 7 7 8
7 7 7 8 8 7 6 6 6 5 6 5 5 4 4 3 3 3 2 1 1 1 1 1 1 2 1 1 0 2 3 3 3 4 4 5 5 5 6 6 6 6 8
6 6 7 7 7 7 7 7 6 5 5 4 4 4 4 4 3 3 2 1 1 1 1 1 2 2 2 2 2 2 3 3 4 4 4 5 5 5 6 6 6 7 8
6 6 6 6 7 7 7 8 6 5 5 4 4 4 3 3 3 3 2 3 2 2 2 2 2 3 2 2 3 3 4 4 4 5 5 5 6 6 7 7 7 7 8
5 5 5 5 6 6 6 7 6 5 4 4 4 3 3 2 2 2 2 2 2 2 2 2 3 3 3 3 4 4 5 5 5 5 5 6 6 7 8 8 7 7 8
4 4 4 4 5 5 5 5 5 5 4 4 3 3 2 2 2 1 1 1 1 2 3 3 3 3 3 3 4 4 5 5 5 5 5 6 7 8 8 8 8 8 9
2 3 3 4 4 5 4 4 4 4 3 3 3 2 2 2 1 1 1 1 2 2 3 3 4 4 3 3 4 4 5 5 4 5 5 6 7 8 8 9 9 9 9
2 2 2 3 4 4 4 3 3 3 3 2 1 2 2 1 1 1 1 2 2 1 2 3 4 5 5 4 5 5 5 5 5 5 6 6 7 8 9 9 9 9 9
3 3 2 3 3 4 4 3 3 3 3 2 1 1 2 2 2 2 2 2 2 2 2 3 4 5 6 5 5 6 6 7 6 6 6 7 7 8 9 10 10 10 10
4 4 4 3 4 4 4 4 3 3 3 2 2 2 2 3 3 3 3 3 3 3 4 5 5 6 6 6 6 6 7 6 7 7 7 7 9 9 10 11 11 12 11
5 4 4 4 4 4 4 4 4 4 4 3 3 4 4 4 5 5 4 4 4 5 6 6 7 8 8 8 8 8 9 8 8 8 8 9 9 10 11 11 11 12 11
6 5 5 5 5 5 5 5 5 5 5 4 4 5 5 5 5 5 5 6 6 6 7 8 9 9 9 9 10 10 9 8 9 9 10 10 10 10 11 12 12 11 12
7 6 6 6 6 7 7 6 6 5 5 5 5 5 6 6 6 6 6 7 7 7 8 8 9 9 9 10 10 11 10 10 10 11 11 11 12 12 12 12 12 12 12

GEFSSE_500_meanwind_354.txt.gz
Wind_Speed
1 1 2 2 1 1 1 1 1 2 3 3 4 4 4 4 4 4 6 5 5 5 5 4 4 4 4 3 3 3 3 3 3 3 4 4 4 4 4 4 4 4 3
1 1 1 0 1 2 2 2 2 2 3 3 3 3 3 4 4 4 5 5 5 5 5 5 4 4 3 3 3 3 3 4 4 4 5 5 5 5 5 5 4 5 5
1 2 2 2 2 2 2 3 2 2 2 2 2 2 2 3 4 4 5 5 5 5 5 4 4 4 4 4 4 4 4 4 5 5 5 5 5 5 6 5 5 6 6
2 2 3 2 2 3 3 3 2 2 1 2 2 3 2 3 4 4 5 5 5 4 4 4 4 4 5 4 4 5 5 5 5 5 5 5 5 5 6 6 6 6 6
2 2 2 3 3 3 3 3 2 1 1 1 2 3 4 3 4 4 4 4 4 4 4 5 5 4 5 5 4 5 5 6 6 5 4 4 5 5 5 5 6 7 7
3 3 3 3 3 4 4 3 2 1 1 0 1 4 4 4 4 3 3 3 3 4 5 5 4 4 5 5 5 5 5 5 5 5 5 5 5 4 4 5 6 7 7
4 4 4 4 4 4 4 3 3 1 1 0 1 3 4 4 3 3 3 2 2 2 3 3 3 3 4 5 5 5 6 5 5 5 6 6 5 4 5 5 6 7 8
5 5 4 4 4 4 4 4 4 2 1 1 1 3 3 3 3 3 2 1 0 1 2 2 3 3 4 4 5 5 5 5 5 5 6 6 5 5 6 6 7 9 9
5 5 5 4 4 3 3 5 3 3 2 1 2 2 3 3 3 3 2 1 0 1 1 2 3 3 4 4 5 6 5 4 5 5 5 5 5 5 6 7 8 8 8
6 6 6 5 5 5 4 5 4 3 3 3 2 2 3 3 3 2 2 2 2 1 1 2 2 3 3 4 4 4 4 4 4 5 5 5 5 6 6 8 8 8 9
7 7 7 6 6 6 5 5 5 4 4 3 2 2 2 2 2 1 1 1 1 1 1 2 2 3 4 3 4 3 3 4 4 4 4 5 5 6 6 7 8 8 8
7 7 7 7 7 7 6 5 5 4 4 3 2 2 2 2 2 1 1 0 1 1 1 2 2 3 3 4 3 3 3 4 4 4 5 5 5 5 5 7 7 8 8
7 7 8 8 8 7 7 5 3 3 4 4 3 2 1 2 2 2 1 1 2 2 2 3 3 3 3 3 3 2 3 4 5 5 5 5 5 5 5 6 7 7 8
8 8 8 9 9 8 7 5 4 4 4 3 4 3 2 2 2 2 1 1 2 2 2 2 3 4 3 4 3 3 4 4 5 5 6 6 5 5 5 6 7 8 8
8 8 9 9 9 9 7 6 5 4 3 3 4 3 2 2 1 2 1 1 2 2 2 3 3 3 4 4 4 4 5 5 6 6 6 7 6 6 6 6 7 8 9
8 9 9 9 9 9 8 6 5 4 4 4 4 3 3 3 2 2 2 2 2 2 3 3 4 4 4 4 4 5 6 6 6 5 6 7 7 6 6 7 7 8 9
8 8 9 8 9 9 8 8 6 5 5 4 3 3 3 2 2 3 3 3 3 3 3 4 4 4 4 4 5 6 6 6 7 6 6 7 7 7 7 8 8 9 9
8 8 8 8 8 9 9 9 7 6 6 4 3 3 2 2 3 3 3 3 4 4 4 4 4 4 4 5 5 6 7 7 8 7 7 8 8 8 9 9 9 10 10
8 8 8 8 8 9 9 9 8 6 6 5 4 3 3 2 3 3 4 4 4 4 4 4 4 4 5 6 6 7 8 8 8 8 8 9 8 8 9 9 9 9 10
8 8 8 8 8 8 9 9 8 7 6 5 5 4 4 3 4 4 4 4 4 4 5 5 4 5 6 7 8 8 9 9 8 8 9 9 9 9 9 9 9 10 10
8 8 8 8 7 7 8 8 8 7 6 6 5 5 4 4 4 4 4 4 4 5 5 5 6 7 7 8 8 9 10 9 9 8 9 10 10 10 10 9 10 10 10
8 8 8 8 7 8 8 8 8 8 7 6 5 5 5 5 4 4 5 5 6 6 6 6 7 8 8 8 9 9 9 9 9 9 10 10 10 10 10 11 11 11 11
8 8 8 7 8 8 8 8 8 8 7 7 6 6 6 5 5 5 5 6 6 6 7 8 8 9 9 10 10 11 11 10 9 10 10 11 11 11 11 11 12 12 12
9 9 8 7 8 8 8 8 8 8 8 8 8 7 7 6 6 6 6 6 7 8 8 9 10 10 11 11 11 11 12 12 11 10 10 11 11 11 11 12 12 12 12
10 9 8 8 8 8 8 8 8 9 8 8 8 8 8 7 7 7 7 8 8 9 9 10 11 12 12 12 12 12 13 14 12 12 11 10 10 11 11 12 12 12 12
10 10 10 9 9 9 9 9 9 9 9 9 9 9 8 8 8 8 8 8 9 9 10 11 11 12 12 13 13 13 14 14 12 12 12 11 10 10 11 12 11 11 12